Simultaneous Nadir Overpasses (SNOs) Predictions

Prediction of SNOs between METOP-B and NOAA-19 Satellite Orbit:

Table of predicted SNOs for the next 14.0 days since TLE Epoch: 4/1/2023
Index Date (METOP-B) Time (METOP-B) Lat,Lon (METOP-B) SZA (METOP-B ) Date (NOAA-19) Time (NOAA-19) Lat,Lon (NOAA-19) SZA (NOAA-19 ) Distance(km) Time Diff (sec)
1 04/05/2023 03:30:21 -80.93, -17.88 103.48 04/05/2023 03:29:09 -80.93, -17.85 103.51 0.40 72
2 04/05/2023 04:21:00 80.94, 149.70 76.54 04/05/2023 04:20:07 80.93, 149.56 76.50 2.83 53
3 04/05/2023 05:11:42 -80.92, -43.35 103.53 04/05/2023 05:11:07 -80.93, -43.25 103.52 1.96 35
4 04/05/2023 06:02:22 80.94, 124.23 76.50 04/05/2023 06:02:06 80.93, 124.15 76.48 1.34 16
5 04/05/2023 06:53:03 -80.93, -68.47 103.52 04/05/2023 06:53:06 -80.93, -68.65 103.54 3.17 3
6 04/05/2023 07:43:44 80.93, 98.75 76.46 04/05/2023 07:44:05 80.93, 98.75 76.47 0.40 21
7 04/05/2023 08:34:25 -80.93, -93.94 103.57 04/05/2023 08:35:05 -80.93, -94.05 103.56 1.85 40



Historial Predications of SNOs between METOP-B and NOAA-19
